Albany, NY

5:07 PM EDT on September 20, 2019 (GMT -0400)
Albany International

Weather History for KALB - August, 2019

Change the Weather History Date:

Monday, August 19, 2019

  Actual Average Record
Temperature  
Mean Temperature 78 °F 70 °F  
Max Temperature 86 °F 80 °F 92 °F (1892)
Min Temperature 69 °F 60 °F 43 °F (1968)
Degree Days  
Heating Degree Days 0 1  
Month to date heating degree days 0 2  
Since 1 June heating degree days 27 59  
Since 1 July heating degree days 0 7  
Cooling Degree Days 13 6  
Month to date cooling degree days 161 123  
Year to date cooling degree days 667 489  
Since 1 June cooling degree days 645 459  
Growing Degree Days 28 (Base 50)    
Moisture  
Dew Point 66 °F    
Average Humidity 73    
Maximum Humidity 90    
Minimum Humidity 55    
Precipitation  
Precipitation T in 0.11 in 1.25 in (1919)
Month to date precipitation 3.10 2.25  
Year to date precipitation 27.96 24.94  
Sea Level Pressure  
Sea Level Pressure 29.96 in    
Wind  
Wind Speed 6 mph (SSW)    
Max Wind Speed 13 mph    
Max Gust Speed 16 mph    
Visibility 10 miles    
Events Rain    
T = Trace of Precipitation, MM = Missing Value Source: NWS Daily Summary

Daily Weather History Graph

Daily Weather History Graph

Search for Another Location

Airport or City:

Astronomy

Aug. 19, 2019 Rise Set
Actual Time 6:05 AM EDT 7:51 PM EDT
Civil Twilight 5:35 AM EDT 8:21 PM EDT
Nautical Twilight 4:58 AM EDT 8:57 PM EDT
Astronomical Twilight 4:19 AM EDT 9:37 PM EDT
Moon 10:06 PM EDT (8/19) 9:48 AM EDT (8/19)
Length of Visible Light 14h 45m
Length of Day
13h 45m
Waning Gibbous, 85% of the Moon is Illuminated
Aug 19
Waning Gibbous
Aug 23
Last Quarter
Aug 30
New
Sep 5
First Quarter
Sep 14
Full

Hourly Weather History & Observations

Time (EDT) Temp. Heat Index Dew Point Humidity Pressure Visibility Wind Dir Wind Speed Gust Speed Precip Events Conditions
12:51 AM 70.0 °F - 66.0 °F 87% 29.93 in 10.0 mi SSE 4.6 mph - N/A   Scattered Clouds
1:27 AM 70.0 °F - 66.0 °F 87% 29.93 in 10.0 mi SE 3.5 mph - N/A   Mostly Cloudy
1:51 AM 70.0 °F - 66.0 °F 87% 29.93 in 10.0 mi South 4.6 mph - N/A   Overcast
2:00 AM 70.0 °F - 66.0 °F 87% 29.94 in 10.0 mi South 6.9 mph - N/A   Overcast
2:51 AM 69.1 °F - 66.0 °F 90% 29.94 in 8.0 mi South 5.8 mph - N/A   Overcast
3:51 AM 69.1 °F - 66.0 °F 90% 29.95 in 7.0 mi South 5.8 mph - N/A   Overcast
4:30 AM 69.1 °F - 66.0 °F 90% 29.95 in 8.0 mi South 5.8 mph - N/A   Overcast
4:43 AM 69.1 °F - 66.0 °F 90% 29.95 in 8.0 mi South 5.8 mph - N/A   Overcast
4:51 AM 69.1 °F - 66.0 °F 90% 29.95 in 6.0 mi South 5.8 mph - N/A   Overcast
5:32 AM 69.1 °F - 64.9 °F 87% 29.96 in 8.0 mi South 6.9 mph - N/A   Overcast
5:51 AM 69.1 °F - 64.9 °F 87% 29.96 in 10.0 mi South 4.6 mph - N/A   Mostly Cloudy
6:51 AM 69.1 °F - 64.9 °F 87% 29.98 in 10.0 mi South 6.9 mph - N/A   Overcast
7:51 AM 69.1 °F - 64.9 °F 87% 29.99 in 10.0 mi SSE 6.9 mph - 0.00 in Rain Light Rain
8:41 AM 71.1 °F - 64.9 °F 81% 29.98 in 10.0 mi Variable 5.8 mph - 0.00 in   Scattered Clouds
8:51 AM 72.0 °F - 64.9 °F 78% 29.98 in 10.0 mi South 8.1 mph - 0.00 in   Scattered Clouds
9:51 AM 73.9 °F - 66.9 °F 79% 29.98 in 10.0 mi Calm Calm - N/A   Scattered Clouds
10:51 AM 78.1 °F - 68.0 °F 71% 29.96 in 10.0 mi SE 6.9 mph - N/A   Scattered Clouds
11:51 AM 80.1 °F 82.7 °F 68.0 °F 67% 29.97 in 10.0 mi West 5.8 mph - N/A   Mostly Cloudy
12:51 PM 82.0 °F 85.5 °F 69.1 °F 65% 29.98 in 10.0 mi NNE 6.9 mph - N/A   Mostly Cloudy
1:51 PM 82.0 °F 85.5 °F 69.1 °F 65% 29.98 in 10.0 mi NW 4.6 mph - N/A   Mostly Cloudy
2:51 PM 82.9 °F 85.8 °F 68.0 °F 60% 29.96 in 10.0 mi Variable 6.9 mph - N/A   Mostly Cloudy
3:51 PM 84.9 °F 87.6 °F 66.9 °F 55% 29.94 in 10.0 mi SW 6.9 mph - N/A   Mostly Cloudy
4:51 PM 84.9 °F 87.1 °F 66.0 °F 53% 29.94 in 10.0 mi West 9.2 mph - N/A   Scattered Clouds
5:51 PM 84.0 °F 86.5 °F 66.9 °F 56% 29.92 in 10.0 mi NW 5.8 mph - N/A   Scattered Clouds
6:51 PM 82.9 °F 85.4 °F 66.9 °F 58% 29.94 in 10.0 mi NW 4.6 mph - N/A   Scattered Clouds
7:51 PM 81.0 °F 83.3 °F 66.9 °F 62% 29.97 in 10.0 mi NW 8.1 mph - N/A   Scattered Clouds
8:51 PM 78.1 °F - 66.0 °F 66% 29.99 in 10.0 mi West 6.9 mph - N/A   Partly Cloudy
9:51 PM 77.0 °F - 64.9 °F 66% 30.01 in 10.0 mi West 4.6 mph - N/A   Partly Cloudy
10:51 PM 73.0 °F - 64.9 °F 76% 30.02 in 10.0 mi WSW 4.6 mph - N/A   Partly Cloudy
11:51 PM 73.0 °F - 64.9 °F 76% 30.03 in 10.0 mi Calm Calm - N/A   Partly Cloudy